Flag for U.S.A. Weather past 2 weeks in Monterey, California, U.S.A.

Now
65 °F

Overcast.


Feels Like: 65 °F
Forecast: 58 / 67 °F
Wind: 12 mph from West

Location: Monterey Peninsula Airport

Current Time: Aug 29, 2014 at 3:34:37 PM

Latest Report: Aug 29, 2014 at 2:54 PM


Visibility: 10 mi

Pressure: 29.98 "Hg

Humidity: 78%

Dew point: 58 °F

Location of MontereyLocation

Historic Weather in Monterey — Graph

°F

Monterey temperature yesterday

Maximum temperature yesterday: 69 °F (at 2:54 PM)
Minimum temperature yesterday: 59 °F (at 6:54 AM)
Average temperature yesterday: 63 °F

Past Weeks' High & Low Weather Summary

 TemperatureHumidityPressure
High75 °F (Aug 27, 2:54 PM)100% (Aug 19, 2:03 AM)30.11 "Hg (Aug 19, 2:03 AM)
Low54 °F (Aug 17, 6:54 AM)50% (Aug 27, 2:54 PM)29.88 "Hg (Aug 24, 5:54 PM)
Average62 °F79%30.00 "Hg
* Reported Aug 14 1:54 PM — Aug 29 1:54 PM, Monterey, Weather by CustomWeather, © 2014

Note: Actual official high and low records may vary slightly from our data, if they occured in-between our weather recording intervals... More about our weather records

Advertising

Monterey weather history for previous 24 hours

 ConditionsComfort  
Time TempWeatherWind HumidityBarometerVisibility
1:54 PM
Aug 29
66 °FPassing clouds.13 mph75%29.96 "Hg10 mi
11:54 AM65 °FPassing clouds.7 mph76%29.97 "Hg8 mi
10:54 AM65 °FPassing clouds.5 mph76%29.98 "Hg10 mi
9:54 AM65 °FScattered clouds.No wind78%29.98 "Hg10 mi
8:54 AM61 °FLow clouds.No wind83%30.00 "Hg10 mi
7:54 AM59 °FFog.No wind90%29.99 "Hg4 mi
6:54 AM59 °FLow clouds.5 mph93%29.98 "Hg10 mi
5:54 AM59 °FLow clouds.No wind96%29.98 "Hg9 mi
4:54 AM59 °FLow clouds.No wind90%29.98 "Hg10 mi
3:54 AM59 °FLow clouds.5 mph90%29.99 "Hg10 mi
2:54 AM59 °FLow clouds.No wind93%29.99 "Hg10 mi
1:54 AM59 °FLow clouds.No wind93%30.01 "Hg10 mi
12:54 AM60 °FLow clouds.8 mph93%30.03 "Hg10 mi
11:54 PM
Aug 28
61 °FLow clouds.6 mph90%30.03 "Hg10 mi
10:54 PM61 °FLow clouds.3 mph90%30.03 "Hg10 mi
9:54 PM61 °FLow clouds.No wind90%30.04 "Hg10 mi
8:54 PM60 °FLow clouds.6 mph93%30.03 "Hg10 mi
7:54 PM62 °FOvercast.No wind86%30.01 "Hg10 mi
6:54 PM63 °FOvercast.3 mph81%30.02 "Hg10 mi
5:59 PM64 °FOvercast.9 mph78%30.00 "Hg10 mi
4:54 PM66 °FSunny.9 mph73%30.03 "Hg10 mi
3:54 PM68 °FSunny.12 mph68%30.04 "Hg10 mi
Weather by CustomWeather, © 2014

See weather overviewHow to use our weather pages